Regional Weather Roundup
Issued by NWS Little Rock, AR

Home | Current Version | Previous Version | Graphics & Text | Print | Product List | Glossary On
Versions: 1 2 3 4 5 6 7 8 9 10 11 12 13 14 15 16 17 18 19 20 21 22 23 24 25 26 27 28 29 30 31 32 33 34 35 36 37 38 39 40 41 42 43 44 45 46 47 48 49 50
000
ASUS44 KLZK 190305
RWRLZK

WEATHER ROUNDUP FOR ARKANSAS
NATIONAL WEATHER SERVICE LITTLE ROCK AR
900 PM CST SUN FEB 18 2018

NOTE: "FAIR" INDICATES FEW OR NO CLOUDS BELOW 12,000 FEET WITH NO
SIGNIFICANT WEATHER AND/OR OBSTRUCTIONS TO VISIBILITY.

ARZ001-003-010-029-190400-
NORTHWEST ARKANSAS

CITY           SKY/WX    TMP DP  RH WIND       PRES   REMARKS
FAYETTEVILLE   CLOUDY    51  50  96 S7        29.90S
FORT SMITH     CLOUDY    50  48  93 E8        29.94S
HARRISON       CLOUDY    47  46  97 S16       29.93S
BENTONVILLE    CLOUDY    52  49  89 S16G22    29.89S
ROGERS         CLOUDY    53  50  89 S22G28    29.87F
SILOAM SPGS    CLOUDY    51  49  92 S15       29.88S
HIGHFILL       CLOUDY    51  50  96 S16       29.87F
SPRINGDALE     CLOUDY    52  52 100 S13G20    29.90S
$$

ARZ004-005-016-190400-
NORTH CENTRAL ARKANSAS

CITY           SKY/WX    TMP DP  RH WIND       PRES   REMARKS
BATESVILLE     LGT RAIN  48  47  96 SE3       30.04S
FLIPPIN        CLOUDY    49  45  86 S9        29.97F
MTN HOME       CLOUDY    48  46  93 S10G22    29.96S
$$

ARZ040-041-190400-
WEST CENTRAL ARKANSAS

CITY           SKY/WX    TMP DP  RH WIND       PRES   REMARKS
MENA           CLOUDY    57  55  94 CALM      29.96F
MOUNT IDA      CLOUDY    48  48 100 VRB3      29.96F FOG
$$

ARZ009-017-025-026-028-190400-
NORTHEAST ARKANSAS

CITY           SKY/WX    TMP DP  RH WIND       PRES   REMARKS
JONESBORO      CLOUDY    52  51  97 S10       30.04S
NEWPORT          N/A     50  49  96 S13       30.05S
WALNUT RIDGE   CLOUDY    49  48  97 S12       30.03S
BLYTHEVILLE    CLOUDY    55  52  89 S10       30.06S
$$

ARZ022-023-033-042-044-190400-
CENTRAL ARKANSAS

CITY           SKY/WX    TMP DP  RH WIND       PRES   REMARKS
LITTLE ROCK    FOG       48  48 100 E3        30.04S VSB 1/8
N LITTLE ROCK    N/A     48  48 100 S6        30.02F
JACKSONVILLE   FOG       50  50 100 E3        30.03F VSB 7/8
SEARCY         LGT RAIN  50  50 100 S3        30.06R FOG
HOT SPRINGS    FOG       48  48 100 E6        30.02S VSB 3/4
RUSSELLVILLE   CLOUDY    47  47 100 E5        30.01S FOG
CLINTON        FOG       46  46 100 CALM      30.04F VSB 1
$$

ARZ036-190400-
EAST ARKANSAS

CITY           SKY/WX    TMP DP  RH WIND       PRES   REMARKS
WEST MEMPHIS   CLOUDY    53  53 100 S12       30.06F
$$

ARZ050-053-066-070-073-190400-
SOUTHWEST ARKANSAS

CITY           SKY/WX    TMP DP  RH WIND       PRES   REMARKS
ARKADELPHIA    FOG       49  49 100 CALM      30.03F VSB 3/4
CAMDEN         FOG       54  50  87 CALM      30.03S VSB 1
TEXARKANA      CLOUDY    53  53 100 E3        29.99S
EL DORADO      MOCLDY    58  58 100 SE5       30.01R
DE QUEEN       CLOUDY    48  48 100 E7        29.97F FOG
$$

ARZ056-057-069-190400-
SOUTHEAST ARKANSAS

CITY           SKY/WX    TMP DP  RH WIND       PRES   REMARKS
PINE BLUFF     FOG       51  51 100 SE7       30.04S VSB 3/4
STUTTGART      LGT RAIN  52  52 100 SE6       30.05S VSB 3/4
MONTICELLO     CLOUDY    59  57  93 S6        30.03R

$$





USA.gov is the U.S. government's official web portal to all federal, state and local government web resources and services.